Regional Weather Roundup
Issued by NWS

Home | Current Version | Previous Version | Graphics & Text | Print | Product List | Glossary On
Versions: 1 2 3 4 5 6 7 8 9 10 11 12 13 14 15 16 17 18 19 20 21 22 23 24 25 26 27 28 29 30 31 32 33 34 35 36 37 38 39 40 41 42 43 44 45 46 47 48 49 50
000
ASUS43 KDTX 012110
RWRMI
MICHIGAN HOURLY REGIONAL WEATHER ROUNDUP
NATIONAL WEATHER SERVICE DETROIT/PONTIAC MI
500 PM EDT TUE SEP 01 2015

NOTE: "FAIR" INDICATES FEW OR NO CLOUDS BELOW 12,000 FEET WITH NO
SIGNIFICANT WEATHER AND/OR OBSTRUCTION TO VISIBILITY.

MIZ047>049-052>055-059>063-066>070-074>076-081>083-012200-
SOUTHEAST LOWER MICHIGAN

CITY           SKY/WX    TMP DP  RH WIND       PRES   REMARKS
ADRIAN         MOSUNNY   89  63  41 W6        30.05F HX  90
ALMA           MOSUNNY   86  68  54 SW8       30.02F
ANN ARBOR      PTSUNNY   84  68  58 S7        30.04F
BAD AXE        MOSUNNY   84  68  58 SW7       30.04S
DETROIT CITY   MOSUNNY   87  68  52 S13       30.03F HX  90
DETROIT        MOSUNNY   89  66  46 SW9       30.04F HX  91
FLINT          MOSUNNY   90  64  42 SW12      30.03F HX  91
GROSSE ILE     MOSUNNY   82  73  74 SE9       30.03F
HILLSDALE      SUNNY     87  65  48 CALM      30.06F
HOWELL         MOSUNNY   88  60  38 SW9       30.04F

CITY           SKY/WX    TMP DP  RH WIND       PRES   REMARKS
JACKSON        SUNNY     86  67  52 SW8       30.05F
LAMBERTVILLE   MOSUNNY   88  66  47 SW3       30.05F HX  90
LANSING        MOSUNNY   87  67  51 SW5       30.03F HX  90
LAPEER         FAIR      88  66  48 SW10      30.04S HX  90
MASON          SUNNY     87  63  44 CALM      30.04F
MONROE         MOSUNNY   88  66  48 SW7       30.03F HX  90
MT. CLEMENS    MOSUNNY   84  70  62 SE10      30.02F
PONTIAC        MOSUNNY   88  66  48 W7        30.03F HX  90
PORT HOPE        N/A     76  70  82 E8        30.02S
PORT HURON     MOSUNNY   84  68  58 CALM      30.03F
TRI CITIES     SUNNY     87  69  54 SW12      30.02F HX  91
MIDLAND        FAIR      87  67  51 SW8       30.00F HX  90
TROY           MOSUNNY   90  65  44 S7        30.05F HX  92
SAGINAW HB     SUNNY     86  70  58 SW7       30.02S HX  90
$$
MIZ043>046-050>051-056>058-064>065-071>073-077>080-012200-
SOUTHWEST LOWER MICHIGAN

CITY           SKY/WX    TMP DP  RH WIND       PRES   REMARKS
BATTLE CREEK   SUNNY     88  68  51 SW7       30.04F HX  91
BENTON HARBOR  MOSUNNY   84  70  62 W10       30.02F
BIG RAPIDS     PTSUNNY   85  69  58 SW7       30.01S
COLDWATER      SUNNY     84  67  56 SW7       30.05F
FREMONT        FAIR      84  73  68 SW9G20    30.00F HX  90
HOLLAND        SUNNY     86  73  65 SW13      30.02F HX  93
GRAND RAPIDS   MOSUNNY   87  71  58 SW10      30.01F HX  93
IONIA          FAIR      88  67  49 SW5       30.01F HX  91
KALAMAZOO      PTSUNNY   88  71  57 SW12      30.03F HX  94
LUDINGTON      SUNNY     83  73  69 SW10G18   29.99S
MARSHALL       MOSUNNY   86  69  56 S6        30.04F HX  90
MOUNT PLEASANT PTSUNNY   90  67  47 SW8       30.00F HX  93
MUSKEGON       MOSUNNY   83  71  67 SW15      30.01F
SOUTH HAVEN    SUNNY     82  69  64 W8        30.02S
$$
MIZ016>042-012200-
NORTHERN LOWER MICHIGAN

CITY           SKY/WX    TMP DP  RH WIND       PRES   REMARKS
ALPENA         MOSUNNY   88  67  49 VRB7      29.99F HX  91
BEAVER ISLAND  MOSUNNY   82  70  66 W12       29.97S
BELLAIRE       MOSUNNY   88  66  47 S6        29.96F HX  90
CADILLAC       MOSUNNY   84  69  60 SW7       30.01S
CHARLEVOIX     MOSUNNY   87  69  54 S8        29.98F HX  91
FRANKFORT      SUNNY     78  71  81 SW10G17   29.97F
GAYLORD        MOSUNNY   85  67  54 SW9       30.00F
GRAYLING       MOSUNNY   86  68  55 SW6       30.01S
HARBOR SPRINGS SUNNY     85  70  60 SW3       29.96S HX  90
HOUGHTON LAKE  SUNNY     85  67  54 S7        30.01F
MANISTEE       SUNNY     86  68  54 S10G22    29.98S
OSCODA         SUNNY     84  70  62 S12       29.99F
PELLSTON       MOSUNNY   87  69  54 W8        29.97S HX  91
ROGERS CITY    PTSUNNY   85  69  58 NE5       29.98F
TRAVERSE CITY  MOSUNNY   89  69  51 SW8       29.95F HX  93
$$
MIZ007>008-015-012200-
EASTERN UPPER MICHIGAN

CITY           SKY/WX    TMP DP  RH WIND       PRES   REMARKS
KINROSS        MOSUNNY   82  72  69 SW8G16    29.96F
MACKINAC ISLAN MOSUNNY   79  66  64 SW6       29.97S
NEWBERRY       MOSUNNY   82  71  69 S15G22    29.95S
S. S. MARIE    MOSUNNY   84  71  65 SW10      29.94F
MUNISING         N/A     87  71  58 S9        29.89F HX  93
$$
MIZ004>006-011>014-085-012200-
CENTRAL UPPER MICHIGAN

CITY           SKY/WX    TMP DP  RH WIND       PRES   REMARKS
MANISTIQUE     PTSUNNY   71  67  87 S7        29.95F FOG
ESCANABA       MOSUNNY   79  70  73 SE8       29.91S
MENOMINEE      MOSUNNY   86  72  62 SW12      29.90F HX  92
SAWYER-GWINN   PTSUNNY   86  68  54 SW10      29.92S
$$
MIZ001>003-009>011-084-012200-
WESTERN UPPER MICHIGAN

CITY           SKY/WX    TMP DP  RH WIND       PRES   REMARKS
IRON MOUNTAIN  MOSUNNY   86  67  52 SW8       29.92S
HOUGHTON       CLOUDY    75  69  81 NW14      29.90S
IRONWOOD       CLOUDY    82  72  69 SW8       29.88S
$$

ABBREVIATIONS USED IN REMARKS
   TC - TEMPERATURE IN CELSIUS
  WCI - WIND CHILL INDEX
   HX - HEAT INDEX
  VSB - VISIBILITY




USA.gov is the U.S. government's official web portal to all federal, state and local government web resources and services.